Weather History for Burlington, WA

Change the Weather History Date:

Wednesday, January 2, 2013

  Actual Average Record
Temperature  
Mean Temperature 38 °F -  
Max Temperature 44 °F 42 °F 57 °F (2012)
Min Temperature 32 °F 31 °F 16 °F (1959)
Degree Days  
Heating Degree Days 27    
Moisture  
Dew Point 34 °F    
Average Humidity 91    
Maximum Humidity 100    
Minimum Humidity 66    
Precipitation  
Precipitation 0.00 in - - ()
Sea Level Pressure  
Sea Level Pressure 30.29 in    
Wind  
Wind Speed 5 mph (NNE)    
Max Wind Speed 12 mph    
Max Gust Speed -    
Visibility 9 miles    
Events      
Averages and records for this station are not official NWS values.
T = Trace of Precipitation, MM = Missing Value Source: NWS Daily Summary

Daily Weather History Graph

Daily Weather History Graph

Search for Another Location

Airport:

Trip Planner

Search our weather history database for the weather conditions in past years. The results will help you decide how hot, cold, wet, or windy it might be!

Date:

Astronomy

Jan. 02, 2013 Rise Set
Actual Time 8:01 AM PST 4:26 PM PST
Civil Twilight 7:24 AM PST 5:03 PM PST
Nautical Twilight 6:45 AM PST 5:43 PM PST
Astronomical Twilight 6:07 AM PST 6:21 PM PST
Moon 10:34 PM PST (1/2) 10:18 AM PST (1/2)
Length of Visible Light 9h 38m
Length of Day
8h 25m
Waning Gibbous, 74% of the Moon is Illuminated
Jan 2
Waning Gibbous
Jan 4
Last Quarter
Jan 11
New
Jan 18
First Quarter
Jan 26
Full

Hourly Weather History & Observations

Time (PST) Temp. Windchill Dew Point Humidity Pressure Visibility Wind Dir Wind Speed Gust Speed Precip Events Conditions
12:15 AM 35.6 °F 32.8 °F 33.8 °F 93% 30.38 in 10.0 mi NNE 3.5 mph - 0.00 in   Clear
12:35 AM 37.4 °F 30.8 °F 33.8 °F 87% 30.37 in 10.0 mi NE 9.2 mph - 0.00 in   Clear
12:55 AM 35.6 °F 28.6 °F 33.8 °F 93% 30.37 in 10.0 mi NE 9.2 mph - 0.00 in   Clear
1:15 AM 35.6 °F 28.6 °F 33.8 °F 93% 30.36 in 10.0 mi ENE 9.2 mph - 0.00 in   Clear
1:35 AM 32.0 °F 26.4 °F 32.0 °F 100% 30.36 in 10.0 mi ENE 5.8 mph - 0.00 in   Clear
2:15 AM 32.0 °F 28.7 °F 32.0 °F 100% 30.36 in 10.0 mi North 3.5 mph - 0.00 in   Clear
2:35 AM 35.6 °F 29.2 °F 33.8 °F 93% 30.35 in 10.0 mi NE 8.1 mph - 0.00 in   Clear
2:55 AM 33.8 °F 27.7 °F 33.8 °F 100% 30.34 in 10.0 mi NE 6.9 mph - 0.00 in   Clear
3:15 AM 35.6 °F 27.5 °F 32.0 °F 87% 30.34 in 10.0 mi NE 11.5 mph - 0.00 in   Clear
3:35 AM 37.4 °F 29.8 °F 32.0 °F 81% 30.34 in 10.0 mi NE 11.5 mph - 0.00 in   Clear
3:55 AM 35.6 °F 28.6 °F 33.8 °F 93% 30.34 in 10.0 mi North 9.2 mph - 0.00 in   Clear
4:15 AM 33.8 °F 28.6 °F 33.8 °F 100% 30.33 in 10.0 mi NNE 5.8 mph - 0.00 in   Clear
4:35 AM 32.0 °F 27.5 °F 32.0 °F 100% 30.33 in 10.0 mi NW 4.6 mph - 0.00 in   Clear
4:55 AM 32.0 °F - 32.0 °F 100% 30.32 in 10.0 mi Calm Calm - 0.00 in   Clear
5:15 AM 33.8 °F - 33.8 °F 100% 30.32 in 8.0 mi Calm Calm - 0.00 in   Clear
5:35 AM 32.0 °F 28.7 °F 32.0 °F 100% 30.32 in 7.0 mi NW 3.5 mph - 0.00 in   Clear
5:55 AM 32.0 °F 28.7 °F 32.0 °F 100% 30.31 in 6.0 mi NNW 3.5 mph - 0.00 in   Clear
6:15 AM 32.0 °F 27.5 °F 32.0 °F 100% 30.31 in 9.0 mi North 4.6 mph - 0.00 in   Clear
6:35 AM 32.0 °F - 32.0 °F 100% 30.31 in 10.0 mi Calm Calm - 0.00 in   Clear
7:15 AM 33.8 °F 29.6 °F 32.0 °F 93% 30.31 in 10.0 mi North 4.6 mph - 0.00 in   Clear
7:35 AM 33.8 °F 30.8 °F 32.0 °F 93% 30.31 in 10.0 mi NNE 3.5 mph - 0.00 in   Clear
7:55 AM 35.6 °F 31.7 °F 32.0 °F 87% 30.31 in 10.0 mi NNE 4.6 mph - 0.00 in   Clear
8:15 AM 33.8 °F 30.8 °F 32.0 °F 93% 30.32 in 9.0 mi NE 3.5 mph - 0.00 in   Clear
8:35 AM 35.6 °F 29.9 °F 32.0 °F 87% 30.31 in 8.0 mi NNE 6.9 mph - 0.00 in   Clear
8:55 AM 35.6 °F 31.7 °F 32.0 °F 87% 30.32 in 9.0 mi NNE 4.6 mph - 0.00 in   Clear
9:15 AM 35.6 °F 32.8 °F 33.8 °F 93% 30.32 in 8.0 mi North 3.5 mph - 0.00 in   Clear
9:35 AM 37.4 °F 33.8 °F 33.8 °F 87% 30.32 in 8.0 mi NE 4.6 mph - 0.00 in   Clear
9:55 AM 35.6 °F 31.7 °F 33.8 °F 93% 30.32 in 8.0 mi ENE 4.6 mph - 0.00 in   Clear
10:15 AM 35.6 °F 32.8 °F 35.6 °F 100% 30.33 in 8.0 mi NE 3.5 mph - 0.00 in   Clear
10:35 AM 37.4 °F 33.8 °F 35.6 °F 93% 30.32 in 8.0 mi NNE 4.6 mph - 0.00 in   Clear
10:55 AM 39.2 °F 34.2 °F 33.8 °F 81% 30.32 in 9.0 mi ENE 6.9 mph - 0.00 in   Clear
11:15 AM 39.2 °F 35.0 °F 33.8 °F 81% 30.32 in 7.0 mi ENE 5.8 mph - 0.00 in   Clear
11:35 AM 39.2 °F 35.0 °F 35.6 °F 87% 30.31 in 7.0 mi East 5.8 mph - 0.00 in   Clear
12:15 PM 42.8 °F 40.1 °F 35.6 °F 76% 30.29 in 8.0 mi SSW 4.6 mph - 0.00 in   Clear
12:35 PM 42.8 °F 41.1 °F 35.6 °F 76% 30.29 in 8.0 mi South 3.5 mph - 0.00 in   Clear
12:55 PM 42.8 °F 39.3 °F 35.6 °F 76% 30.28 in 8.0 mi SSW 5.8 mph - 0.00 in   Clear
1:15 PM 42.8 °F - 35.6 °F 76% 30.27 in 8.0 mi Calm Calm - 0.00 in   Clear
1:35 PM 44.6 °F - 33.8 °F 66% 30.27 in 8.0 mi Calm Calm - 0.00 in   Clear
1:55 PM 44.6 °F - 33.8 °F 66% 30.27 in 8.0 mi Calm Calm - 0.00 in   Clear
2:15 PM 44.6 °F - 33.8 °F 66% 30.27 in 7.0 mi Calm Calm - 0.00 in   Clear
2:35 PM 44.6 °F 42.2 °F 35.6 °F 71% 30.26 in 4.0 mi ENE 4.6 mph - 0.00 in   Clear
3:35 PM 39.2 °F 37.0 °F 35.6 °F 87% 30.27 in 7.0 mi NW 3.5 mph - 0.00 in   Clear
3:55 PM 39.2 °F 37.0 °F 35.6 °F 87% 30.27 in 8.0 mi NNW 3.5 mph - 0.00 in   Clear
4:15 PM 39.2 °F 33.6 °F 35.6 °F 87% 30.27 in 8.0 mi North 8.1 mph - 0.00 in   Clear
4:35 PM 39.2 °F 35.9 °F 35.6 °F 87% 30.27 in 9.0 mi North 4.6 mph - 0.00 in   Clear
4:55 PM 37.4 °F 34.9 °F 33.8 °F 87% 30.26 in 9.0 mi NNW 3.5 mph - 0.00 in   Clear
5:15 PM 37.4 °F - 33.8 °F 87% 30.26 in 10.0 mi Calm Calm - 0.00 in   Clear
5:35 PM 37.4 °F - 33.8 °F 87% 30.26 in 10.0 mi Calm Calm - 0.00 in   Clear
5:55 PM 37.4 °F 34.9 °F 33.8 °F 87% 30.26 in 10.0 mi SE 3.5 mph - 0.00 in   Clear
6:15 PM 35.6 °F 32.8 °F 35.6 °F 100% 30.25 in 10.0 mi NNE 3.5 mph - 0.00 in   Clear
6:35 PM 35.6 °F - 33.8 °F 93% 30.25 in 9.0 mi Calm Calm - 0.00 in   Clear
6:55 PM 35.6 °F - 35.6 °F 100% 30.25 in 10.0 mi Calm Calm - 0.00 in   Clear
7:15 PM 35.6 °F 32.8 °F 35.6 °F 100% 30.24 in 9.0 mi NE 3.5 mph - 0.00 in   Clear
7:35 PM 35.6 °F - 33.8 °F 93% 30.24 in 10.0 mi Calm Calm - 0.00 in   Clear
7:55 PM 35.6 °F - 35.6 °F 100% 30.24 in 10.0 mi Calm Calm - 0.00 in   Clear
8:15 PM 33.8 °F - 33.8 °F 100% 30.23 in 9.0 mi Calm Calm - 0.00 in   Clear
8:35 PM 33.8 °F 30.8 °F 33.8 °F 100% 30.23 in 9.0 mi NE 3.5 mph - 0.00 in   Clear
8:55 PM 33.8 °F - 33.8 °F 100% 30.23 in 9.0 mi Calm Calm - 0.00 in   Clear
9:15 PM 33.8 °F - 33.8 °F 100% 30.23 in 10.0 mi Calm Calm - 0.00 in   Clear
9:35 PM 32.0 °F 28.7 °F 32.0 °F 100% 30.23 in 9.0 mi NE 3.5 mph - 0.00 in   Clear
9:55 PM 33.8 °F - 33.8 °F 100% 30.23 in 9.0 mi Calm Calm - 0.00 in   Clear
10:15 PM 32.0 °F - 32.0 °F 100% 30.23 in 9.0 mi Calm Calm - 0.00 in   Clear
10:35 PM 32.0 °F - 32.0 °F 100% 30.23 in 10.0 mi Calm Calm - 0.00 in   Clear
10:55 PM 32.0 °F 28.7 °F 32.0 °F 100% 30.22 in 10.0 mi NW 3.5 mph - 0.00 in   Clear
11:15 PM 33.8 °F 29.6 °F 33.8 °F 100% 30.22 in 10.0 mi NNE 4.6 mph - 0.00 in   Clear
11:35 PM 33.8 °F 30.8 °F 33.8 °F 100% 30.22 in 10.0 mi NNW 3.5 mph - 0.00 in   Clear
11:55 PM 32.0 °F 28.7 °F 32.0 °F 100% 30.22 in 9.0 mi SW 3.5 mph - 0.00 in   Clear